TIANMU-1 15

Last updated on Sun Oct 06 2024 00:02:18 GMT+0000 (Coordinated Universal Time)

1 58700U 24004A 24279.57505082 .00018830 00000+0 94434-3 0 9992 2 58700 97.4638 98.8167 0010177 35.9687 324.2230 15.17335964 41490
UTC large
Height (km)
Speed (km/s)
/
Latitude / Longitude
Inclination (degrees)
Orbital Period (minutes)
Azimuth
Elevation
Range (km)
Doppler Factor

Next 0 passes for location: London (51.5072 / 0.1276)

Sorry there are no passes over London.